Time,TemperatureF,DewpointF,PressureIn,WindDirection,WindDirectionDegrees,WindSpeedMPH,WindSpeedGustMPH,Humidity,HourlyPrecipIn,Conditions,Clouds,dailyrainin,SoftwareType,DateUTC
2013-03-03 00:00:00,51.6,49.4,29.50,SSW,202,1.1,1.1,92,0.00,,OVC012,0.00,VWS V14.01,2013-03-03 08:00:00,
2013-03-03 10:56:00,68.2,39.5,29.59,SSW,202,1.1,1.1,35,0.00,,FEW280,0.00,VWS V14.01,2013-03-03 18:56:00,
2013-03-03 11:01:00,69.1,39.6,29.53,SSW,202,1.1,1.1,34,0.00,,BKN200,0.00,VWS V14.01,2013-03-03 19:01:00,
2013-03-03 11:06:00,70.7,40.2,29.53,SSW,202,1.1,1.1,33,0.00,,BKN200,0.00,VWS V14.01,2013-03-03 19:06:00,
2013-03-03 11:11:00,70.7,40.2,29.53,SSW,202,1.1,1.1,33,0.00,,BKN200,0.00,VWS V14.01,2013-03-03 19:11:00,
2013-03-03 11:16:00,70.7,40.2,29.56,SSW,202,1.1,1.1,33,0.00,,BKN200,0.00,VWS V14.01,2013-03-03 19:16:00,
2013-03-03 11:21:00,70.7,40.2,29.56,SSW,202,1.1,1.1,33,0.00,,BKN200,0.00,VWS V14.01,2013-03-03 19:21:00,
2013-03-03 11:26:00,70.7,40.2,29.56,SSW,202,1.1,1.1,33,0.00,,BKN200,0.00,VWS V14.01,2013-03-03 19:26:00,
2013-03-03 11:31:00,70.7,40.2,29.56,SSW,202,1.1,1.1,33,0.00,,BKN200,0.00,VWS V14.01,2013-03-03 19:31:00,
2013-03-03 11:36:00,70.7,40.2,29.56,SSW,202,1.1,1.1,33,0.00,,BKN200,0.00,VWS V14.01,2013-03-03 19:36:00,
2013-03-03 11:41:00,72.3,40.8,29.56,SSW,202,1.1,1.1,32,0.00,,BKN200,0.00,VWS V14.01,2013-03-03 19:41:00,
2013-03-03 11:46:00,72.1,40.7,29.56,SSW,202,1.1,1.1,32,0.00,,BKN200,0.00,VWS V14.01,2013-03-03 19:46:00,
2013-03-03 11:51:00,72.0,40.5,29.56,SSW,202,1.1,1.1,32,0.00,,BKN200,0.00,VWS V14.01,2013-03-03 19:51:00,
2013-03-03 11:56:00,72.9,41.3,29.56,SSW,202,1.1,1.1,32,0.00,,BKN200,0.00,VWS V14.01,2013-03-03 19:56:00,
2013-03-03 12:01:00,72.9,41.3,29.53,SSW,202,1.1,1.1,32,0.00,,BKN200,0.00,VWS V14.01,2013-03-03 20:01:00,
2013-03-03 12:06:00,72.9,41.3,29.53,SSW,202,1.1,1.1,32,0.00,,BKN200,0.00,VWS V14.01,2013-03-03 20:06:00,
2013-03-03 12:11:00,72.9,41.3,29.53,SSW,202,1.1,1.1,32,0.00,,BKN200,0.00,VWS V14.01,2013-03-03 20:11:00,
2013-03-03 12:16:00,72.9,41.3,29.53,SSW,202,1.1,1.1,32,0.00,,BKN200,0.00,VWS V14.01,2013-03-03 20:16:00,
2013-03-03 12:21:00,72.9,41.3,29.53,SSW,202,1.1,1.1,32,0.00,,BKN200,0.00,VWS V14.01,2013-03-03 20:21:00,
2013-03-03 12:27:00,72.9,41.3,29.53,SSW,202,1.1,1.1,32,0.00,,BKN200,0.00,VWS V14.01,2013-03-03 20:27:00,
2013-03-03 12:32:00,72.9,41.3,29.53,SSW,202,1.1,1.1,32,0.00,,BKN200,0.00,VWS V14.01,2013-03-03 20:32:00,
2013-03-03 12:36:00,72.9,41.3,29.53,SSW,202,1.1,1.1,32,0.00,,BKN200,0.00,VWS V14.01,2013-03-03 20:36:00,
2013-03-03 12:42:00,72.9,41.3,29.53,SSW,202,1.1,1.1,32,0.00,,BKN200,0.00,VWS V14.01,2013-03-03 20:42:00,
2013-03-03 12:47:00,72.9,41.3,29.50,SSW,202,1.1,1.1,32,0.00,,BKN200,0.00,VWS V14.01,2013-03-03 20:47:00,
2013-03-03 12:52:00,72.9,41.3,29.50,SSW,202,1.1,1.1,32,0.00,,BKN200,0.00,VWS V14.01,2013-03-03 20:52:00,
2013-03-03 12:57:00,72.9,41.3,29.50,SSW,202,1.1,1.1,32,0.00,,BKN200,0.00,VWS V14.01,2013-03-03 20:57:00,
2013-03-03 13:02:00,72.9,41.3,29.47,SSW,202,1.1,1.1,32,0.00,,BKN200,0.00,VWS V14.01,2013-03-03 21:02:00,
2013-03-03 13:07:00,74.7,39.4,29.47,SSW,202,1.1,1.1,28,0.00,,BKN200,0.00,VWS V14.01,2013-03-03 21:07:00,
2013-03-03 13:12:00,76.1,41.6,29.47,SSW,202,1.1,1.1,29,0.00,,BKN200,0.00,VWS V14.01,2013-03-03 21:12:00,
2013-03-03 13:17:00,76.6,42.0,29.47,SSW,202,1.1,1.1,29,0.00,,BKN200,0.00,VWS V14.01,2013-03-03 21:17:00,
2013-03-03 13:22:00,78.1,41.4,29.47,SSW,202,1.1,1.1,27,0.00,,BKN200,0.00,VWS V14.01,2013-03-03 21:22:00,
2013-03-03 13:27:00,78.8,40.0,29.47,SSW,202,1.1,1.1,25,0.00,,BKN200,0.00,VWS V14.01,2013-03-03 21:27:00,
2013-03-03 13:32:00,77.5,39.0,29.50,SSW,202,1.1,1.1,25,0.00,,BKN200,0.00,VWS V14.01,2013-03-03 21:32:00,
2013-03-03 13:37:00,77.9,39.3,29.50,SSW,202,1.1,1.1,25,0.00,,BKN200,0.00,VWS V14.01,2013-03-03 21:37:00,
2013-03-03 13:42:00,78.1,38.4,29.50,SSW,202,1.1,1.1,24,0.00,,BKN200,0.00,VWS V14.01,2013-03-03 21:42:00,
2013-03-03 13:47:00,77.2,37.6,29.50,SSW,202,1.1,1.1,24,0.00,,BKN200,0.00,VWS V14.01,2013-03-03 21:47:00,
2013-03-03 13:52:00,75.9,34.4,29.50,SSW,202,1.1,1.1,22,0.00,,BKN200,0.00,VWS V14.01,2013-03-03 21:52:00,
2013-03-03 13:57:00,75.9,35.5,29.50,SSW,202,1.1,1.1,23,0.00,,BKN200,0.00,VWS V14.01,2013-03-03 21:57:00,
2013-03-03 14:02:00,75.7,35.3,29.50,SSW,202,1.1,1.1,23,0.00,,BKN200,0.00,VWS V14.01,2013-03-03 22:02:00,
2013-03-03 14:07:00,74.7,34.4,29.50,SSW,202,1.1,1.1,23,0.00,,BKN200,0.00,VWS V14.01,2013-03-03 22:07:00,
2013-03-03 14:12:00,74.1,42.4,29.50,SSW,202,1.1,1.1,32,0.00,,BKN200,0.00,VWS V14.01,2013-03-03 22:12:00,
2013-03-03 14:17:00,72.7,43.5,29.50,SSW,202,1.1,1.1,35,0.00,,BKN200,0.00,VWS V14.01,2013-03-03 22:17:00,
2013-03-03 14:22:00,70.7,43.9,29.50,SSW,202,1.1,1.1,38,0.00,,BKN200,0.00,VWS V14.01,2013-03-03 22:22:00,
2013-03-03 14:27:00,70.9,45.4,29.50,SSW,202,1.1,1.1,40,0.00,,BKN200,0.00,VWS V14.01,2013-03-03 22:27:00,
2013-03-03 14:32:00,70.7,44.5,29.50,SSW,202,1.1,1.1,39,0.00,,BKN200,0.00,VWS V14.01,2013-03-03 22:32:00,
2013-03-03 14:37:00,70.9,44.0,29.50,SSW,202,1.1,1.1,38,0.00,,BKN200,0.00,VWS V14.01,2013-03-03 22:37:00,
2013-03-03 14:42:00,71.6,44.0,29.50,SSW,202,1.1,1.1,37,0.00,,BKN200,0.00,VWS V14.01,2013-03-03 22:42:00,
2013-03-03 14:47:00,71.4,44.5,29.50,SSW,202,1.1,1.1,38,0.00,,BKN200,0.00,VWS V14.01,2013-03-03 22:47:00,
2013-03-03 14:52:00,70.0,44.6,29.50,SSW,202,1.1,1.1,40,0.00,,BKN200,0.00,VWS V14.01,2013-03-03 22:52:00,
2013-03-03 14:57:00,70.0,46.5,29.50,SSW,202,1.1,1.1,43,0.00,,BKN200,0.00,VWS V14.01,2013-03-03 22:57:00,
2013-03-03 15:02:00,70.0,47.1,29.50,SSW,202,1.1,1.1,44,0.00,,BKN200,0.00,VWS V14.01,2013-03-03 23:02:00,
2013-03-03 15:07:00,70.5,48.2,29.50,SSW,202,1.1,1.1,45,0.00,,BKN200,0.00,VWS V14.01,2013-03-03 23:07:00,
2013-03-03 15:12:00,70.3,47.4,29.50,SSW,202,1.1,1.1,44,0.00,,BKN200,0.00,VWS V14.01,2013-03-03 23:12:00,
2013-03-03 15:17:00,70.3,47.4,29.50,SSW,202,1.1,1.1,44,0.00,,BKN200,0.00,VWS V14.01,2013-03-03 23:17:00,
2013-03-03 15:22:00,69.8,47.5,29.50,SSW,202,1.1,1.1,45,0.00,,BKN200,0.00,VWS V14.01,2013-03-03 23:22:00,
2013-03-03 15:27:00,71.1,48.1,29.50,SSW,202,1.1,1.1,44,0.00,,BKN200,0.00,VWS V14.01,2013-03-03 23:27:00,
2013-03-03 15:32:00,70.9,47.9,29.50,SSW,202,1.1,1.1,44,0.00,,BKN200,0.00,VWS V14.01,2013-03-03 23:32:00,
2013-03-03 15:37:00,69.1,46.9,29.50,SSW,202,1.1,1.1,45,0.00,,BKN200,0.00,VWS V14.01,2013-03-03 23:37:00,
2013-03-03 15:42:00,69.6,48.0,29.50,SSW,202,1.1,1.1,46,0.00,,BKN200,0.00,VWS V14.01,2013-03-03 23:42:00,
2013-03-03 15:47:00,68.9,46.7,29.50,SSW,202,1.1,1.1,45,0.00,,BKN200,0.00,VWS V14.01,2013-03-03 23:47:00,
2013-03-03 15:52:00,68.9,46.7,29.50,SSW,202,1.1,1.1,45,0.00,,BKN200,0.00,VWS V14.01,2013-03-03 23:52:00,
2013-03-03 15:57:00,68.7,46.5,29.50,SSW,202,1.1,1.1,45,0.00,,BKN200,0.00,VWS V14.01,2013-03-03 23:57:00,
2013-03-03 16:02:00,68.4,45.6,29.47,SSW,202,1.1,1.1,44,0.00,,BKN220,0.00,VWS V14.01,2013-03-04 00:02:00,
2013-03-03 16:07:00,67.1,45.1,29.47,SSW,202,1.1,1.1,45,0.00,,BKN220,0.00,VWS V14.01,2013-03-04 00:07:00,
2013-03-03 16:12:00,66.6,45.2,29.47,SSW,202,1.1,1.1,46,0.00,,BKN220,0.00,VWS V14.01,2013-03-04 00:12:00,
2013-03-03 16:17:00,65.8,45.1,29.47,SSW,202,1.1,1.1,47,0.00,,BKN220,0.00,VWS V14.01,2013-03-04 00:17:00,
2013-03-03 16:22:00,64.8,44.6,29.47,SSW,202,1.1,1.1,48,0.00,,BKN220,0.00,VWS V14.01,2013-03-04 00:22:00,
2013-03-03 16:27:00,64.8,44.6,29.47,SSW,202,1.1,1.1,48,0.00,,BKN220,0.00,VWS V14.01,2013-03-04 00:27:00,
2013-03-03 16:32:00,64.6,46.6,29.47,SSW,202,1.1,1.1,52,0.00,,BKN220,0.00,VWS V14.01,2013-03-04 00:32:00,
2013-03-03 16:37:00,64.6,46.6,29.47,SSW,202,1.1,1.1,52,0.00,,BKN220,0.00,VWS V14.01,2013-03-04 00:37:00,
2013-03-03 16:42:00,64.6,46.6,29.47,SSW,202,1.1,1.1,52,0.00,,BKN220,0.00,VWS V14.01,2013-03-04 00:42:00,
2013-03-03 16:47:00,64.6,46.6,29.47,SSW,202,1.1,1.1,52,0.00,,BKN220,0.00,VWS V14.01,2013-03-04 00:47:00,
2013-03-03 16:53:00,64.6,46.6,29.47,SSW,202,1.1,1.1,52,0.00,,BKN220,0.00,VWS V14.01,2013-03-04 00:53:00,
2013-03-03 16:58:00,64.6,46.6,29.47,SSW,202,1.1,1.1,52,0.00,,BKN220,0.00,VWS V14.01,2013-03-04 00:58:00,
2013-03-03 17:03:00,64.6,46.6,29.50,SSW,202,1.1,1.1,52,0.00,,BKN230,0.00,VWS V14.01,2013-03-04 01:03:00,
2013-03-03 17:08:00,64.6,46.6,29.50,SSW,202,1.1,1.1,52,0.00,,BKN230,0.00,VWS V14.01,2013-03-04 01:08:00,
2013-03-03 17:13:00,64.6,46.6,29.50,SSW,202,1.1,1.1,52,0.00,,BKN230,0.00,VWS V14.01,2013-03-04 01:13:00,
2013-03-03 17:18:00,64.6,46.6,29.50,SSW,202,1.1,1.1,52,0.00,,BKN230,0.00,VWS V14.01,2013-03-04 01:18:00,
2013-03-03 17:23:00,64.6,46.6,29.50,SSW,202,1.1,1.1,52,0.00,,BKN230,0.00,VWS V14.01,2013-03-04 01:23:00,
2013-03-03 17:28:00,64.6,46.6,29.50,SSW,202,1.1,1.1,52,0.00,,BKN230,0.00,VWS V14.01,2013-03-04 01:28:00,
2013-03-03 17:33:00,64.6,46.6,29.50,SSW,202,1.1,1.1,52,0.00,,BKN230,0.00,VWS V14.01,2013-03-04 01:33:00,
2013-03-03 17:38:00,64.6,46.6,29.50,SSW,202,1.1,1.1,52,0.00,,BKN230,0.00,VWS V14.01,2013-03-04 01:38:00,
2013-03-03 17:43:00,64.6,46.6,29.50,SSW,202,1.1,1.1,52,0.00,,BKN230,0.00,VWS V14.01,2013-03-04 01:43:00,
2013-03-03 17:48:00,64.6,46.6,29.47,SSW,202,1.1,1.1,52,0.00,,BKN230,0.00,VWS V14.01,2013-03-04 01:48:00,
2013-03-03 17:53:00,64.6,46.6,29.47,SSW,202,1.1,1.1,52,0.00,,BKN230,0.00,VWS V14.01,2013-03-04 01:53:00,
2013-03-03 17:58:00,64.6,46.6,29.47,SSW,202,1.1,1.1,52,0.00,,BKN230,0.00,VWS V14.01,2013-03-04 01:58:00,
2013-03-03 18:03:00,64.6,46.6,29.50,SSW,202,1.1,1.1,52,0.00,,BKN230,0.00,VWS V14.01,2013-03-04 02:03:00,
2013-03-03 18:08:00,64.6,46.6,29.50,SSW,202,1.1,1.1,52,0.00,,BKN230,0.00,VWS V14.01,2013-03-04 02:08:00,
2013-03-03 18:13:00,64.6,46.6,29.50,SSW,202,1.1,1.1,52,0.00,,BKN230,0.00,VWS V14.01,2013-03-04 02:13:00,
2013-03-03 18:18:00,57.7,48.8,29.50,SSW,202,1.1,1.1,72,0.00,,BKN230,0.00,VWS V14.01,2013-03-04 02:18:00,
2013-03-03 18:23:00,57.7,48.8,29.50,SSW,202,1.1,1.1,72,0.00,,BKN230,0.00,VWS V14.01,2013-03-04 02:23:00,
2013-03-03 18:28:00,57.7,48.8,29.50,SSW,202,1.1,1.1,72,0.00,,BKN230,0.00,VWS V14.01,2013-03-04 02:28:00,
2013-03-03 18:33:00,57.7,48.8,29.50,SSW,202,1.1,1.1,72,0.00,,BKN230,0.00,VWS V14.01,2013-03-04 02:33:00,
2013-03-03 18:38:00,57.7,48.8,29.50,SSW,202,1.1,1.1,72,0.00,,BKN230,0.00,VWS V14.01,2013-03-04 02:38:00,
2013-03-03 18:43:00,57.7,48.8,29.50,SSW,202,1.1,1.1,72,0.00,,BKN230,0.00,VWS V14.01,2013-03-04 02:43:00,
2013-03-03 18:48:00,57.7,48.8,29.50,SSW,202,1.1,1.1,72,0.00,,BKN230,0.00,VWS V14.01,2013-03-04 02:48:00,
2013-03-03 18:53:00,57.7,48.8,29.50,SSW,202,1.1,1.1,72,0.00,,BKN230,0.00,VWS V14.01,2013-03-04 02:53:00,
2013-03-03 18:58:00,57.7,48.8,29.50,SSW,202,1.1,1.1,72,0.00,,BKN230,0.00,VWS V14.01,2013-03-04 02:58:00,
2013-03-03 19:03:00,57.7,48.8,29.50,SSW,202,1.1,1.1,72,0.00,,BKN200,0.00,VWS V14.01,2013-03-04 03:03:00,
2013-03-03 19:08:00,57.7,48.8,29.50,SSW,202,1.1,1.1,72,0.00,,BKN200,0.00,VWS V14.01,2013-03-04 03:08:00,
2013-03-03 19:13:00,57.7,48.8,29.50,SSW,202,1.1,1.1,72,0.00,,BKN200,0.00,VWS V14.01,2013-03-04 03:13:00,
2013-03-03 19:18:00,57.7,48.8,29.50,SSW,202,1.1,1.1,72,0.00,,BKN200,0.00,VWS V14.01,2013-03-04 03:18:00,
2013-03-03 19:23:00,57.7,48.8,29.50,SSW,202,1.1,1.1,72,0.00,,BKN200,0.00,VWS V14.01,2013-03-04 03:23:00,
2013-03-03 19:28:00,57.7,48.8,29.50,SSW,202,1.1,1.1,72,0.00,,BKN200,0.00,VWS V14.01,2013-03-04 03:28:00,
2013-03-03 19:33:00,57.7,48.8,29.47,SSW,202,1.1,1.1,72,0.00,,BKN095,0.00,VWS V14.01,2013-03-04 03:33:00,
2013-03-03 19:38:00,57.7,48.8,29.47,SSW,202,1.1,1.1,72,0.00,,BKN095,0.00,VWS V14.01,2013-03-04 03:38:00,
2013-03-03 19:43:00,57.7,48.8,29.47,SSW,202,1.1,1.1,72,0.00,,BKN095,0.00,VWS V14.01,2013-03-04 03:43:00,
2013-03-03 19:48:00,57.7,48.8,29.50,SSW,202,1.1,1.1,72,0.00,,BKN095,0.00,VWS V14.01,2013-03-04 03:48:00,
2013-03-03 19:53:00,57.7,48.8,29.50,SSW,202,1.1,1.1,72,0.00,,BKN095,0.00,VWS V14.01,2013-03-04 03:53:00,
2013-03-03 19:58:00,57.7,48.8,29.50,SSW,202,1.1,1.1,72,0.00,,BKN095,0.00,VWS V14.01,2013-03-04 03:58:00,
2013-03-03 20:03:00,57.7,48.8,29.50,SSW,202,1.1,1.1,72,0.00,,BKN070,0.00,VWS V14.01,2013-03-04 04:03:00,
2013-03-03 20:08:00,57.7,48.8,29.50,SSW,202,1.1,1.1,72,0.00,,BKN070,0.00,VWS V14.01,2013-03-04 04:08:00,
2013-03-03 20:13:00,57.7,48.8,29.50,SSW,202,1.1,1.1,72,0.00,,BKN070,0.00,VWS V14.01,2013-03-04 04:13:00,
2013-03-03 20:19:00,57.7,48.8,29.50,SSW,202,1.1,1.1,72,0.00,,BKN070,0.00,VWS V14.01,2013-03-04 04:19:00,
2013-03-03 20:24:00,57.7,48.8,29.50,SSW,202,1.1,1.1,72,0.00,,BKN070,0.00,VWS V14.01,2013-03-04 04:24:00,
2013-03-03 20:29:00,57.7,48.8,29.50,SSW,202,1.1,1.1,72,0.00,,BKN070,0.00,VWS V14.01,2013-03-04 04:29:00,
2013-03-03 20:34:00,57.7,48.8,29.53,SSW,202,1.1,1.1,72,0.00,,BKN075,0.00,VWS V14.01,2013-03-04 04:34:00,
2013-03-03 20:39:00,57.7,48.8,29.53,SSW,202,1.1,1.1,72,0.00,,BKN075,0.00,VWS V14.01,2013-03-04 04:39:00,
2013-03-03 20:44:00,57.7,48.8,29.53,SSW,202,1.1,1.1,72,0.00,,BKN075,0.00,VWS V14.01,2013-03-04 04:44:00,
2013-03-03 20:49:00,57.7,48.8,29.50,SSW,202,1.1,1.1,72,0.00,,BKN075,0.00,VWS V14.01,2013-03-04 04:49:00,
2013-03-03 20:54:00,57.7,48.8,29.50,SSW,202,1.1,1.1,72,0.00,,BKN075,0.00,VWS V14.01,2013-03-04 04:54:00,
2013-03-03 20:59:00,57.7,48.8,29.50,SSW,202,1.1,1.1,72,0.00,,BKN075,0.00,VWS V14.01,2013-03-04 04:59:00,
2013-03-03 21:00:00,57.7,48.8,29.50,SSW,202,1.1,1.1,72,0.00,,BKN075,0.00,VWS V14.01,2013-03-04 05:00:00,
2013-03-03 21:05:00,57.7,48.8,29.50,SSW,202,1.1,1.1,72,0.00,,BKN011,0.00,VWS V14.01,2013-03-04 05:05:00,
2013-03-03 21:10:00,57.7,48.8,29.50,SSW,202,1.1,1.1,72,0.00,,BKN011,0.00,VWS V14.01,2013-03-04 05:10:00,
2013-03-03 21:15:00,57.7,48.8,29.50,SSW,202,1.1,1.1,72,0.00,,BKN011,0.00,VWS V14.01,2013-03-04 05:15:00,
2013-03-03 21:20:00,57.7,48.8,29.50,SSW,202,1.1,1.1,72,0.00,,BKN011,0.00,VWS V14.01,2013-03-04 05:20:00,
2013-03-03 21:25:00,57.7,48.8,29.50,SSW,202,1.1,1.1,72,0.00,,BKN011,0.00,VWS V14.01,2013-03-04 05:25:00,
2013-03-03 21:30:00,57.7,48.8,29.50,SSW,202,1.1,1.1,72,0.00,,BKN011,0.00,VWS V14.01,2013-03-04 05:30:00,
2013-03-03 21:35:00,57.7,48.8,29.50,SSW,202,1.1,1.1,72,0.00,,BKN011,0.00,VWS V14.01,2013-03-04 05:35:00,
2013-03-03 21:40:00,57.7,48.8,29.50,SSW,202,1.1,1.1,72,0.00,,BKN011,0.00,VWS V14.01,2013-03-04 05:40:00,
2013-03-03 21:45:00,57.7,48.8,29.50,SSW,202,1.1,1.1,72,0.00,,BKN011,0.00,VWS V14.01,2013-03-04 05:45:00,
2013-03-03 21:50:00,57.7,48.8,29.50,SSW,202,1.1,1.1,72,0.00,,BKN011,0.00,VWS V14.01,2013-03-04 05:50:00,
2013-03-03 21:55:00,57.7,48.8,29.50,SSW,202,1.1,1.1,72,0.00,,BKN011,0.00,VWS V14.01,2013-03-04 05:55:00,
2013-03-03 22:00:00,57.7,48.8,29.50,SSW,202,1.1,1.1,72,0.00,,BKN011,0.00,VWS V14.01,2013-03-04 06:00:00,
2013-03-03 22:05:00,57.7,48.8,29.50,SSW,202,1.1,1.1,72,0.00,,BKN011,0.00,VWS V14.01,2013-03-04 06:05:00,
2013-03-03 22:10:00,57.7,48.8,29.50,SSW,202,1.1,1.1,72,0.00,,BKN011,0.00,VWS V14.01,2013-03-04 06:10:00,
2013-03-03 22:15:00,57.7,48.8,29.50,SSW,202,1.1,1.1,72,0.00,,BKN011,0.00,VWS V14.01,2013-03-04 06:15:00,
2013-03-03 22:20:00,57.7,48.8,29.50,SSW,202,1.1,1.1,72,0.00,,BKN011,0.00,VWS V14.01,2013-03-04 06:20:00,
2013-03-03 22:25:00,57.7,48.8,29.50,SSW,202,1.1,1.1,72,0.00,,BKN011,0.00,VWS V14.01,2013-03-04 06:25:00,
2013-03-03 22:30:00,57.7,48.8,29.50,SSW,202,1.1,1.1,72,0.00,,BKN011,0.00,VWS V14.01,2013-03-04 06:30:00,
2013-03-03 22:35:00,57.7,48.8,29.50,SSW,202,1.1,1.1,72,0.00,,BKN011,0.00,VWS V14.01,2013-03-04 06:35:00,
2013-03-03 22:40:00,57.7,48.8,29.50,SSW,202,1.1,1.1,72,0.00,,BKN011,0.00,VWS V14.01,2013-03-04 06:40:00,
2013-03-03 22:45:00,57.7,48.8,29.50,SSW,202,1.1,1.1,72,0.00,,BKN011,0.00,VWS V14.01,2013-03-04 06:45:00,
2013-03-03 22:50:00,57.7,48.8,29.50,SSW,202,1.1,1.1,72,0.00,,BKN011,0.00,VWS V14.01,2013-03-04 06:50:00,
2013-03-03 22:55:00,57.7,48.8,29.50,SSW,202,1.1,1.1,72,0.00,,BKN011,0.00,VWS V14.01,2013-03-04 06:55:00,
2013-03-03 23:00:00,57.7,48.8,29.50,SSW,202,1.1,1.1,72,0.00,,SCT065,0.00,VWS V14.01,2013-03-04 07:00:00,
2013-03-03 23:05:00,57.7,48.8,29.50,SSW,202,1.1,1.1,72,0.00,,SCT065,0.00,VWS V14.01,2013-03-04 07:05:00,
2013-03-03 23:10:00,57.7,48.8,29.50,SSW,202,1.1,1.1,72,0.00,,SCT065,0.00,VWS V14.01,2013-03-04 07:10:00,
2013-03-03 23:15:00,57.7,48.8,29.50,SSW,202,1.1,1.1,72,0.00,,BKN015,0.00,VWS V14.01,2013-03-04 07:15:00,
2013-03-03 23:21:00,57.7,48.8,29.50,SSW,202,1.1,1.1,72,0.00,,BKN015,0.00,VWS V14.01,2013-03-04 07:21:00,
2013-03-03 23:26:00,51.4,48.9,29.50,SSW,202,1.1,1.1,91,0.00,,BKN015,0.00,VWS V14.01,2013-03-04 07:26:00,
2013-03-03 23:31:00,51.4,48.9,29.50,SSW,202,1.1,1.1,91,0.00,,BKN017,0.00,VWS V14.01,2013-03-04 07:31:00,
2013-03-03 23:36:00,51.4,48.9,29.50,SSW,202,1.1,1.1,91,0.00,,BKN017,0.00,VWS V14.01,2013-03-04 07:36:00,
2013-03-03 23:41:00,51.6,49.4,29.50,SSW,202,1.1,1.1,92,0.00,,BKN017,0.00,VWS V14.01,2013-03-04 07:41:00,
2013-03-03 23:46:00,51.6,49.4,29.47,SSW,202,1.1,1.1,92,0.00,,BKN017,0.00,VWS V14.01,2013-03-04 07:46:00,
2013-03-03 23:51:00,51.6,49.4,29.47,SSW,202,1.1,1.1,92,0.00,,BKN017,0.00,VWS V14.01,2013-03-04 07:51:00,
2013-03-03 23:56:00,51.6,49.4,29.47,SSW,202,1.1,1.1,92,0.00,,BKN017,0.00,VWS V14.01,2013-03-04 07:56:00,